GLOBALSTAR M073

Last updated on Mon Sep 21 2026 00:03:12 GMT+0000 (Coordinated Universal Time)

1 37193U 10054F 26263.00323149 -.00000104 00000+0 -15549-5 0 9999 2 37193 52.0046 135.6730 0000557 88.2783 52.0337 12.62268110735903
UTC large
Height (km)
Speed (km/s)
/
Latitude / Longitude
Inclination (degrees)
Orbital Period (minutes)
Azimuth
Elevation
Range (km)
Doppler Factor

Next 0 passes for location: London (51.5072 / 0.1276)

No passes found over London.
GLOBALSTAR M073